Torna al catalogo

SL-14 DEB

AttivoPO
NORAD 39972·DEBRIS·🇷🇺 Russia

Lanciato Aug 18, 1987 da Plesetsk Cosmodrome

Loading…

Prossimi Passaggi (prossime 24 ore)

TLE

In scadenzaSource: Space-Track

Epoca: Sep 4, 2026, 23:29 UTC

1 39972U 87068CY  26247.97881712  .00000289  00000-0  21954-3 0  9996
2 39972  82.4949 136.8869 0017954 188.2664 171.8206 13.90759585620926

Traccia SL-14 DEB in tempo reale con AllMySat

Download on the App Store